Location: Newark
(49.8348°N, 24.0280°E)
Time: 07:25:07
(UTC+00:00)

deb Explorer IX - Pass Details

Date: 03 February 2020
Orbit: 549 x 1099 km, 38.8° (Epoch: 20 February)

Event Time Altitude Azimuth Distance (km) Brightness Sun altitude
Rises 17:51:39 0° 239° (WSW) 3,361 ? -24.4°
Reaches altitude 10° 17:54:19 10° 229° (SW) 2,519 ? -24.8°
Maximum altitude 17:59:29 30° 171° (S) 1,656 ? -25.7°
Enters shadow 17:59:59 29° 162° (SSE) 1,678 ? -25.8°
